MyTimes logo

TIMES

Webb Imagery

9/04/2000
Brighton Bay Run
10km Run

(Click on competitor name to view personalised results)

Name
Race #
Category
Time
(h:mm:ss)
Avg Speed
km/hr
OAll
Place
Cat
Place
FIRST MALE R#926Adult Male Runner0:31:253:08 11
STOKES L#451Adult Male Runner0:31:423:10 22
MURRAY M#411Adult Male Runner0:31:473:11 33
ASHBY C#601Adult Male Runner0:32:403:16 44
GRIMMETT M#630Adult Male Runner0:33:163:20 55
MITCHELL P#785Adult Male Runner0:33:253:20 66
SCOTT A#380Adult Male Runner0:33:413:22 77
STOKES J#450Junior Male Runner0:33:513:23 81
ATTARD J#935Junior Male Runner0:34:013:24 92
WATSON D#418Adult Male Runner0:34:333:27 108
KING J#925Adult Female Runner0:34:373:28 111
MCKENZIE S#898Adult Male Runner0:34:593:30 129
MCCANN H#875Adult Male Runner0:37:103:43 1310
BURCHALL G#814Adult Male Runner0:37:143:43 1411
HAZELDINE L#598Junior Male Runner0:37:313:45 153
FERGUSON W#410Adult Male Runner0:37:433:46 1612
SCHLEGEL C#604Adult Male Runner0:37:463:47 1713
LOGAN D#909Adult Male Runner0:37:473:47 1814
REIDIE D#517Adult Male Runner0:38:093:49 1915
FISHER M#755Adult Male Runner0:38:183:50 2016
DUNNING R#593Adult Male Runner0:38:233:50 2117
TMPLIN P#426Adult Male Runner0:38:373:52 2218
HANNELL L#760Adult Female Runner0:38:513:53 232
LOSTY F#505Adult Male Runner0:38:573:54 2419
QUINTAL P#452Adult Male Runner0:39:043:54 2520
HAMMOND L#581Junior Male Runner0:39:103:55 264
SUTTON R#510Adult Male Runner0:39:113:55 2721
ROSS P#574Adult Male Runner0:39:113:55 2822
SISSON A#481Adult Male Runner0:39:173:56 2923
DOWNEY W#790Adult Male Runner0:39:203:56 3024
PURCELL P#456Junior Male Runner0:39:213:56 315
GALBRAITH D#373Adult Male Runner0:39:283:57 3225
O'CONNELL P#552Adult Female Runner0:39:293:57 333
WALLMAN M 1#525Adult Male Runner0:39:303:57 3426
COLLARD L#398Adult Male Runner0:39:393:58 3527
DILLON T#770Adult Male Runner0:39:413:58 3628
VANCE O#911Adult Male Runner0:39:443:58 3729
THEODOROPOULOS B#509Adult Male Runner0:40:184:02 3830
JOHNSTON A#480Adult Male Runner0:40:224:02 3931
ASHTON P#960Adult Male Runner0:40:274:03 4032
DAX B#628Adult Male Runner0:40:354:04 4133
KENNEDY M#774Adult Female Runner0:40:374:04 424
GERBER S#923Adult Male Runner0:40:384:04 4334
MOSSIOS C#501Adult Male Runner0:40:404:04 4435
MARTIN C#417Adult Male Runner0:40:544:05 4536
HASTINGS D#622Adult Male Runner0:41:074:07 4637
CAMPBELL P#384Adult Male Runner0:41:244:08 4738
STERTON G#830Adult Male Runner0:41:324:09 4839
MCCORMACK L#429Adult Male Runner0:41:334:09 4940
FORD C#558Adult Female Runner0:41:344:09 505
GAMBLE M#642Adult Male Runner0:41:434:10 5141
TOY J#405Adult Male Runner0:41:454:10 5242
MCCANN P#504Adult Male Runner0:41:514:11 5343
PUCOVSKI J#391Adult Male Runner0:41:534:11 5444
SCHERGER G#990Adult Male Runner0:41:554:12 5545
SPYKER P#643Adult Male Runner0:41:564:12 5646
ALPERMATT K#645Adult Male Runner0:42:004:12 5747
SANDERS J#376Adult Male Runner0:42:124:13 5848
REID J#591Adult Male Runner0:42:134:13 5949
GORDON R#751Adult Male Runner0:42:144:13 6050
MELICK P 3#792Adult Male Runner0:42:174:14 6151
BOLGER S#322Adult Female Runner0:42:284:15 626
FUREY G#400Adult Male Runner0:42:344:15 6352
SHEFFIELD S#780Adult Male Runner0:42:434:16 6453
WOODS G#551Adult Female Runner0:42:504:17 657
NICHOLSON C#358Adult Female Runner0:42:534:17 668
MANSFIELD B#874Adult Male Runner0:42:534:17 6754
KORMAN S#750Adult Male Runner0:42:574:18 6855
WOODMAN R#619Adult Male Runner0:42:584:18 6956
ASADA T#465Junior Male Runner0:42:584:18 706
DEDRICK P#454Adult Male Runner0:42:594:18 7157
WILKWARD S#849Junior Male Runner0:43:064:19 727
KIRK P#913Adult Male Runner0:43:074:19 7358
ZUKERMAN J#835Adult Male Runner0:43:094:19 7459
O'CONNELL J#354Adult Female Runner0:43:154:19 759
ANGLISS S#397Adult Male Runner0:43:234:20 7660
SHUGG S#365Adult Male Runner0:43:244:20 7761
SEMPLE R#313Adult Female Runner0:43:274:21 7810
HEARN D#557Adult Female Runner0:43:284:21 7911
NOBLE R#595Adult Male Runner0:43:404:22 8062
HEXTER D#589Adult Male Runner0:43:454:22 8163
PARLEVLIET J#895Adult Female Runner0:43:514:23 8212
TRIM H#466Adult Male Runner0:43:544:23 8364
GODUMARK D#566Adult Female Runner0:43:564:24 8413
PENNY M#512Adult Male Runner0:44:014:24 8565
ROFFEY J#652Adult Male Runner0:44:044:24 8666
BROWN A#646Adult Male Runner0:44:054:25 8767
CARTER S#575Adult Male Runner0:44:054:25 8868
PETERSEN B#337Junior Female Runner0:44:054:25 891
TALIDA D#637Adult Male Runner0:44:094:25 9069
FAIR S#401Adult Male Runner0:44:124:25 9170
MASON J#578Adult Male Runner0:44:234:26 9271
RALPHSMITH S#577Adult Male Runner0:44:244:26 9372
EMMERSON P#627Adult Male Runner0:44:324:27 9473
LYNCH V#407Adult Male Runner0:44:334:27 9574
CASH A#536Adult Female Runner0:44:464:29 9614
McGreen G#654Adult Male Runner0:45:004:30 9775
PIENING P#617Adult Male Runner0:45:034:30 9876
RANK S#655Adult Male Runner0:45:074:31 9977
PHILLIPS J#416Adult Male Runner0:45:094:31 10078
VERHASEN H#931Adult Male Runner0:45:114:31 10179
MCKENZIE D#568Adult Female Runner0:45:194:32 10215
CHOLREY N#824Adult Female Runner0:45:204:32 10316
STAINTHORPE N#592Adult Male Runner0:45:224:32 10480
TINDALE C#865Adult Male Runner0:45:234:32 10581
PAGE A 3#772Adult Male Runner0:45:274:33 10682
MADDERN D#638Adult Male Runner0:45:284:33 10783
SHAW R#404Adult Male Runner0:45:384:34 10884
NELSON M#395Adult Male Runner0:45:384:34 10985
MURPHY M#355Adult Female Runner0:45:384:34 11017
DELMAS B#448Adult Male Runner0:45:524:35 11186
HAMILTON B#859Junior Female Runner0:45:534:35 1122
PARTOS A#634Adult Male Runner0:45:584:36 11387
WATKINS B#434Adult Male Runner0:45:584:36 11488
EAGLE R#612Adult Male Runner0:46:104:37 11589
SARGEANT M 3#767Adult Female Runner0:46:194:38 11618
BROWN G#580Adult Male Runner0:46:234:38 11790
GRIMES T#618Adult Male Runner0:46:234:38 11891
LEONARD A#920Adult Female Runner0:46:244:38 11919
QUINN A#607Adult Male Runner0:46:254:38 12092
SWANN D#308Adult Female Runner0:46:264:39 12120
FRANKS R#360Adult Female Runner0:46:324:39 12221
TAYLOR K#988Adult Female Runner0:46:334:39 12322
ASHBY D#600Adult Male Runner0:46:404:40 12493
SCALA M#490Adult Male Runner0:46:424:40 12594
BRACCIALE W#527Adult Male Runner0:46:434:40 12695
MILLMAN T#375Adult Male Runner0:47:004:42 12796
REBECCA S#486Adult Male Runner0:47:024:42 12897
O'BRIEN R#910Adult Female Runner0:47:074:43 12923
MONK C#541Adult Female Runner0:47:114:43 13024
LOVITT R#894Adult Male Runner0:47:304:45 13198
CREESE E#471Junior Male Runner0:47:304:45 1328
ALLARD B#378Adult Male Runner0:47:344:45 13399
LAZAREVIC M#382Adult Female Runner0:47:374:46 13425
TIDEY D#406Adult Male Runner0:47:464:47 135100
GRIFFIN S#412Adult Male Runner0:47:494:47 136101
PURCELL L#485Adult Male Runner0:47:504:47 137102
SKULL S#388Adult Male Runner0:47:524:47 138103
MORRIS T#884Adult Male Runner0:47:554:48 139104
WILSON W#940Adult Male Runner0:47:564:48 140105
MARTIN P#301Adult Female Runner0:48:014:48 14126
SWINGLER T#516Adult Male Runner0:48:124:49 142106
MACFARLANE G#639Adult Male Runner0:48:144:49 143107
KENNEDY J#463Adult Male Runner0:48:154:50 144108
DOW K#560Adult Female Runner0:48:184:50 14527
SIU P#860Adult Male Runner0:48:204:50 146109
HOUSTON J#439Adult Male Runner0:48:284:51 147110
SHAW W#402Adult Male Runner0:48:294:51 148111
PRITCHARD S#594Adult Male Runner0:48:304:51 149112
KURTBEGOVI S#310Adult Female Runner0:48:344:51 15028
LALEMAN A#311Adult Female Runner0:48:364:52 15129
MORISHIGE H#403Adult Male Runner0:48:384:52 152113
TAKASE S#461Adult Male Runner0:48:384:52 153114
DEAS F#553Adult Female Runner0:48:434:52 15430
HOUSTON B#356Adult Female Runner0:48:454:52 15531
ENNIS M#431Adult Male Runner0:48:514:53 156115
THOMPSON J#413Adult Male Runner0:48:564:54 157116
GOODMAN A#543Junior Female Runner0:49:024:54 1583
CHRISTIANSEN C#432Junior Male Runner0:49:034:54 1599
BAILEY I#657Junior Male Runner0:49:054:54 16010
ARGENT R#409Adult Male Runner0:49:104:55 161117
DAY G#475Adult Male Runner0:49:124:55 162118
FORNALSKI G#633Adult Male Runner0:49:164:56 163119
RIMMER M#390Adult Male Runner0:49:204:56 164120
FOWLER KEV#367Adult Male Runner0:49:244:56 165121
FISHER S#369Adult Male Runner0:49:264:57 166122
MELICK J#556Adult Female Runner0:49:274:57 16732
WATT L#350Adult Female Runner0:49:294:57 16833
POPKISS J#521Adult Male Runner0:49:324:57 169123
PIKE B#449Adult Male Runner0:49:414:58 170124
KELLY R#606Adult Male Runner0:49:434:58 171125
WALKER D#616Adult Male Runner0:49:434:58 172126
PIKE P#342Adult Female Runner0:49:444:58 17334
PHILIPP G#331Adult Male Runner0:49:484:59 174127
BRADY S#636Adult Male Runner0:49:534:59 175128
HAWKINS L#488Adult Male Runner0:49:565:00 176129
CROCKER B#532Adult Female Runner0:50:095:01 17735
GOUGH P#433Adult Male Runner0:50:135:01 178130
GORDON L#352Adult Female Runner0:50:185:02 17936
MCGAURAN J#496Adult Male Runner0:50:255:02 180131
DOUGLAS B#879Adult Male Runner0:50:275:03 181132
WAKELY M#420Adult Male Runner0:50:345:03 182133
KALITSIS A#414Adult Male Runner0:50:355:04 183134
BONANNO A#659Junior Male Runner0:50:375:04 18411
CHALK T#344Adult Female Runner0:50:405:04 18537
BARRETT P#436Junior Male Runner0:50:485:05 18612
JONES N#565Adult Female Runner0:50:545:05 18738
HORSNELL G#459Adult Male Runner0:50:555:06 188135
BEDFORD M#428Adult Male Runner0:51:035:06 189136
ROBERTS G#658Junior Male Runner0:51:035:06 19013
NORRIS C#596Adult Male Runner0:51:045:06 191137
RUSSELL J#839Adult Female Runner0:51:065:07 19239
ATKEN B#546Adult Female Runner0:51:215:08 19340
SIKKES K 3#752Adult Female Runner0:51:225:08 19441
HAMMOND S#809Adult Female Runner0:51:235:08 19542
HAYES W#545Adult Female Runner0:51:245:08 19643
CADMAN S#437Adult Male Runner0:51:245:08 197138
RYAN J#467Adult Female Runner0:51:385:10 19844
FINCHAM C#514Adult Male Runner0:51:455:10 199139
DAVID E#345Adult Female Runner0:51:475:11 20045
CARROLL M#561Adult Female Runner0:51:495:11 20146
DAY C#775Adult Male Runner0:51:565:12 202140
TURIZYNOKA M#544Adult Female Runner0:52:085:13 20347
DAVIES KEN#458Adult Male Runner0:52:105:13 204141
GRAHAM N#590Adult Male Runner0:52:155:14 205142
BUDGE D#855Adult Male Runner0:52:205:14 206143
METCALFE P#363Adult Male Runner0:52:245:14 207144
SMITH P#371Adult Male Runner0:52:285:15 208145
RUSSELL G#482Adult Male Runner0:52:335:15 209146
BONNITCHA I#854Adult Male Runner0:52:395:16 210147
JOHNS C#435Adult Male Runner0:52:525:17 211148
OHORA M#455Adult Male Runner0:52:535:17 212149
MARTIN G#383Adult Male Runner0:52:535:17 213150
JUDD A#333Adult Female Runner0:52:555:18 21448
WOLF M#328Adult Female Runner0:52:565:18 21549
BECROFT J#889Adult Male Runner0:53:025:18 216151
REED J#364Adult Male Runner0:53:115:19 217152
MACHEIL S#312Adult Female Runner0:53:125:19 21850
HUGHES C#571Adult Male Runner0:53:155:19 219153
HERITAGE C#389Adult Male Runner0:53:155:19 220154
DWYER R#468Adult Male Runner0:53:175:20 221155
BROOKS M#443Adult Male Runner0:53:195:20 222156
NIBBS W#419Adult Male Runner0:53:205:20 223157
FROST M#905Adult Female Runner0:53:275:21 22451
HANNA S#900Adult Female Runner0:53:285:21 22552
HOUSTON D#582Adult Male Runner0:53:305:21 226158
GRECH D#550Adult Female Runner0:53:335:21 22753
PENTLAND B#784Adult Male Runner0:53:355:21 228159
SKERRITT M#462Adult Male Runner0:53:385:22 229160
TAYLOR J#315Adult Female Runner0:53:385:22 23054
WHITE C#457Adult Male Runner0:53:465:23 231161
CAMERON S#303Adult Female Runner0:53:475:23 23255
TAYLRO R#522Adult Male Runner0:53:505:23 233162
KOKOVAS G#523Adult Male Runner0:53:505:23 234163
HOWES D#985Adult Female Runner0:53:525:23 23556
CASEY C#396Adult Male Runner0:54:005:24 236164
AZOOR F#421Adult Male Runner0:54:005:24 237165
WALLACE M#330Adult Male Runner0:54:005:24 238166
HORGAN S#499Adult Male Runner0:54:035:24 239167
MEYER G#300Adult Female Runner0:54:165:26 24057
CREESE S#470Adult Male Runner0:54:245:26 241168
HAMILTON L#668Adult Female Runner0:54:265:27 24258
BARRON L#779Adult Male Runner0:54:345:27 243169
GOWARD M#864Adult Male Runner0:54:365:28 244170
HAWKINS S#494Adult Male Runner0:54:435:28 245171
LENTINI F#343Adult Female Runner0:54:465:29 24659
WHITFORD R#440Adult Male Runner0:54:495:29 247172
AYERS A#469Adult Male Runner0:54:505:29 248173
PETROVIC M#415Junior Male Runner0:55:185:32 24914
HALL M#829Adult Male Runner0:55:195:32 250174
BARDSLEY W#834Adult Male Runner0:55:215:32 251175
MCBRIDE D#381Adult Male Runner0:55:235:32 252176
KENNEDY L#341Adult Female Runner0:55:425:34 25360
MONTEITH D#332Adult Female Runner0:56:105:37 25461
SINCLAIR J#492Adult Male Runner0:56:215:38 255177
VASSELLA A#329Adult Female Runner0:56:245:38 25662
JELINEK B#547Adult Male Runner0:56:245:38 257178
AMERY M 3#782Adult Female Runner0:56:335:39 25863
AMERY P 3#777Adult Male Runner0:56:345:39 259179
FORRESTER F#318Adult Female Runner0:56:375:40 26064
EADE J#508Adult Male Runner0:56:385:40 261180
MANTELL T#323Adult Female Runner0:56:505:41 26265
WILLEY K#497Adult Male Runner0:56:525:41 263181
GUNARAJA G#430Adult Male Runner0:56:545:41 264182
HARVEY C#620Adult Male Runner0:57:315:45 265183
LEWES J#588Adult Male Runner0:57:315:45 266184
DRUERY M#869Adult Female Runner0:57:325:45 26766
MCGILL H#477Adult Female Runner0:58:035:48 26867
EMMERTON D#579Adult Male Runner0:58:035:48 269185
DELATOUR C#351Adult Female Runner0:58:205:50 27068
DAVIS M#515Adult Male Runner0:58:235:50 271186
SULLIVAN G#340Adult Female Runner0:58:265:51 27269
GEORGIOU K#542Adult Female Runner0:58:365:52 27370
MORRISON D#915Adult Female Runner0:59:095:55 27471
THEODORE C 3#787Junior Female Runner0:59:205:56 2754
HUMPHRIS F#326Adult Female Runner0:59:245:56 27672
MCBRIDE L#327Adult Female Runner0:59:285:57 27773
LAWRENCE T#346Adult Female Runner0:59:305:57 27874
GNADEN B#805Adult Male Runner1:00:096:01 279187
THIELE M#576Adult Male Runner1:00:236:02 280188
BURGESS J#316Adult Female Runner1:00:286:03 28175
QUINN A#609Adult Male Runner1:00:416:04 282189
MEE A#559Adult Female Runner1:00:426:04 28376
MCGUIGAN P#423Adult Male Runner1:01:066:07 284190
MCKENZIE G#893Adult Female Runner1:01:116:07 28577
MERRALL A#613Adult Male Runner1:01:266:09 286191
BAILES S#845Junior Male Runner1:01:346:09 28715
SKINNER G#320Adult Female Runner1:02:456:16 28878
MCDONALD G#476Adult Male Runner1:03:266:21 289192
SLIFKA J#302Junior Female Runner1:03:496:23 2905
VANCE J#368Adult Male Runner1:03:506:23 291193
MCAFFREY J#377Adult Male Runner1:03:596:24 292194
MILLMAN J#599Adult Male Runner1:04:096:25 293195
WALKER L#615Adult Male Runner1:04:556:30 294196
WATTS J#335Adult Female Runner1:04:596:30 29579
PODEBAT A#379Adult Male Runner1:05:056:31 296197
WATKINS B#334Adult Female Runner1:05:286:33 29780
COLLERETTE C#870Adult Male Runner1:05:456:35 298198
KAMKE M#442Adult Male Runner1:06:036:36 299199
WILSON M#945Adult Female Runner1:06:206:38 30081
CAPSALIS L#880Adult Female Runner1:07:006:42 30182
RATTENBURY A#584Adult Male Runner1:08:036:48 302200
ROSE TED#888Adult Male Runner1:10:017:00 303201
WORMALD V#339Adult Female Runner1:11:327:09 30483
NODELUM H#548Adult Female Runner1:12:137:13 30584
SIFRIS S#549Adult Female Runner1:12:187:14 30685
PALMER I#850Adult Male Runner1:14:577:30 307202
NTERIS P#904Adult Male Runner1:19:017:54 308203